EW8080 Weather Reports


Display with metric or nautical units.
time (UTC)temp
F
wind
direction
speed
MPH
gust
MPH
rain 1hr
in
rain 24hr
in
rain mn
in
humidity
%
barometer
mb
20260509063003 44 115 1.0 4.0 0.00 0.00 0.00 79 1014.6
20260509062003 44 217 4.0 4.0 0.00 0.00 0.00 79 1014.8
20260509061002 44 349 0.0 3.0 0.00 0.00 0.00 79 1014.6
20260509060003 44 304 0.0 3.0 0.00 0.00 0.00 78 1014.5
20260509055025 44 215 1.0 3.0 0.00 0.00 0.00 77 1014.4
20260509054002 44 209 1.0 4.0 0.00 0.00 0.00 77 1014.6
20260509053002 44 59 0.0 4.0 0.00 0.00 0.00 77 1014.4
20260509052003 44 258 4.0 4.0 0.00 0.00 0.00 76 1014.5
20260509051003 44 190 2.0 5.0 0.00 0.00 0.00 76 1014.5
20260509050003 44 301 1.0 5.0 0.00 0.00 0.00 76 1014.6
20260509045003 44 8 2.0 5.0 0.00 0.00 0.00 75 1014.4
20260509044004 45 225 1.0 4.0 0.00 0.00 0.00 74 1014.5
20260509043003 46 228 1.0 5.0 0.00 0.00 0.00 73 1014.5
20260509042025 46 3 3.0 5.0 0.00 0.00 0.00 74 1014.5
20260509041003 46 243 2.0 6.0 0.00 0.00 0.00 73 1014.4
20260509040003 46 222 4.0 6.0 0.00 0.00 0.00 73 1014.3
20260509035003 47 197 2.0 6.0 0.00 0.00 0.00 72 1014.3
20260509034002 47 295 2.0 6.0 0.00 0.00 0.00 72 1014.0
20260509033004 48 207 2.0 6.0 0.00 0.00 0.00 70 1014.1
20260509032003 48 76 2.0 7.0 0.00 0.00 0.00 71 1014.2
20260509031024 48 227 3.0 7.0 0.00 0.00 0.00 72 1014.1
20260509030003 48 236 2.0 7.0 0.00 0.00 0.00 73 1014.2
20260509025024 49 208 4.0 6.0 0.00 0.00 0.00 74 1013.9
20260509024024 49 228 2.0 8.0 0.00 0.00 0.00 74 1013.6
20260509023003 49 222 4.0 8.0 0.00 0.00 0.00 74 1013.7
20260509022003 50 231 5.0 8.0 0.00 0.00 0.00 73 1013.5
20260509021003 50 241 3.0 5.0 0.00 0.00 0.00 73 1013.4
20260509020003 50 264 0.0 4.0 0.00 0.00 0.00 74 1013.5
20260509015004 50 270 0.0 5.0 0.00 0.00 0.00 74 1013.2
20260509014003 50 204 3.0 5.0 0.00 0.00 0.00 74 1013.2
20260509013024 51 217 3.0 5.0 0.00 0.00 0.00 73 1013.0
20260509012003 51 215 4.0 6.0 0.00 0.00 0.00 72 1012.7
20260509011024 51 209 4.0 7.0 0.00 0.00 0.00 71 1012.6
20260509010003 52 208 5.0 7.0 0.00 0.00 0.00 70 1012.3
20260509005003 52 216 5.0 6.0 0.00 0.00 0.00 69 1012.3
20260509004003 52 211 5.0 6.0 0.00 0.00 0.00 69 1012.1
20260509003003 53 214 5.0 8.0 0.00 0.00 0.00 68 1012.0
20260509002003 53 207 5.0 8.0 0.00 0.00 0.00 67 1011.4
20260509001003 54 206 3.0 5.0 0.00 0.00 0.00 66 1011.2
20260509000003 54 197 5.0 8.0 0.00 0.00 0.00 66 1011.1
20260508235003 54 187 5.0 8.0 0.00 0.00 0.00 66 1010.8
20260508234003 55 192 3.0 9.0 0.00 0.00 0.00 63 1010.8
20260508233003 56 182 2.0 10.0 0.00 0.00 0.00 63 1010.8
20260508232003 56 207 5.0 10.0 0.00 0.00 0.00 62 1010.7
20260508231003 56 233 5.0 12.0 0.00 0.00 0.00 62 1010.6
20260508230003 57 212 8.0 13.0 0.00 0.00 0.00 60 1010.4
20260508225003 58 222 5.0 13.0 0.00 0.00 0.00 58 1010.4
20260508224003 58 247 7.0 13.0 0.00 0.00 0.00 46 1010.2
20260508223003 59 246 4.0 13.0 0.00 0.00 0.00 47 1010.3
20260508222003 59 266 4.0 17.0 0.00 0.00 0.00 47 1010.1
20260508221003 59 287 7.0 17.0 0.00 0.00 0.00 45 1010.1
20260508220003 59 326 10.0 19.0 0.00 0.00 0.00 46 1010.1
20260508215003 59 336 12.0 19.0 0.00 0.00 0.00 45 1010.1
20260508214003 60 268 8.0 17.0 0.00 0.00 0.00 47 1010.0
20260508213003 60 245 8.0 17.0 0.00 0.00 0.00 46 1009.8
20260508212003 59 327 9.0 18.0 0.00 0.00 0.00 46 1009.8
20260508211004 59 260 10.0 18.0 0.00 0.00 0.00 53 1009.9
20260508210024 59 287 9.0 18.0 0.00 0.00 0.00 54 1009.8
20260508205003 57 237 7.0 17.0 0.00 0.00 0.00 60 1009.8
20260508204025 57 240 8.0 19.0 0.00 0.00 0.00 59 1009.9
20260508203003 58 238 14.0 24.0 0.00 0.00 0.00 57 1009.8
20260508202003 59 238 14.0 31.0 0.00 0.00 0.00 54 1009.6
20260508201024 60 225 14.0 31.0 0.00 0.00 0.00 52 1009.2
20260508200002 60 241 13.0 22.0 0.00 0.00 0.00 49 1009.0
20260508195003 61 229 7.0 17.0 0.00 0.00 0.00 53 1009.0
20260508194002 61 259 11.0 23.0 0.00 0.00 0.00 55 1008.8
20260508193004 61 211 12.0 23.0 0.00 0.00 0.00 55 1008.7
20260508192003 62 204 12.0 21.0 0.00 0.00 0.00 53 1008.7
20260508191003 63 194 13.0 23.0 0.00 0.00 0.00 50 1008.5
20260508190003 63 206 15.0 24.0 0.00 0.00 0.00 51 1008.8
20260508185003 63 208 14.0 28.0 0.00 0.00 0.00 51 1008.8
20260508184003 63 210 11.0 28.0 0.00 0.00 0.00 48 1008.6
20260508183003 63 208 12.0 23.0 0.00 0.00 0.00 45 1008.8
20260508182003 64 211 11.0 23.0 0.00 0.00 0.00 49 1008.9
20260508181003 65 214 13.0 24.0 0.00 0.00 0.00 48 1009.1
20260508180003 64 220 9.0 24.0 0.00 0.00 0.00 48 1009.0
20260508175024 65 220 13.0 23.0 0.00 0.00 0.00 43 1008.9
20260508174003 66 214 12.0 20.0 0.00 0.00 0.00 46 1008.8
20260508173003 65 212 11.0 20.0 0.00 0.00 0.00 45 1009.2
20260508172024 65 215 13.0 20.0 0.00 0.00 0.00 44 1009.2
20260508171003 65 195 11.0 22.0 0.00 0.00 0.00 44 1009.1
20260508170003 64 211 11.0 22.0 0.00 0.00 0.00 46 1009.3
20260508165003 65 196 12.0 20.0 0.00 0.00 0.00 42 1009.4
20260508164003 66 238 10.0 19.0 0.00 0.00 0.00 36 1009.5
20260508163024 65 255 10.0 19.0 0.00 0.00 0.00 39 1009.4
20260508162003 63 266 10.0 15.0 0.00 0.00 0.00 38 1009.5
20260508161003 63 239 6.0 22.0 0.00 0.00 0.00 36 1009.9
20260508160003 63 239 8.0 22.0 0.00 0.00 0.00 35 1010.1
20260508155003 64 280 14.0 20.0 0.00 0.00 0.00 33 1010.0
20260508154003 65 219 7.0 20.0 0.00 0.00 0.00 36 1010.0
20260508153003 65 260 14.0 20.0 0.00 0.00 0.00 34 1010.1
20260508152003 66 238 6.0 15.0 0.00 0.00 0.00 38 1010.1
20260508151004 65 243 7.0 15.0 0.00 0.00 0.00 35 1010.2
20260508150003 64 267 5.0 15.0 0.00 0.00 0.00 34 1010.2
20260508145003 62 258 8.0 15.0 0.00 0.00 0.00 39 1010.3
20260508144003 63 306 6.0 18.0 0.00 0.00 0.00 36 1010.3
20260508143003 62 293 11.0 22.0 0.00 0.00 0.00 36 1010.3
20260508142003 61 315 11.0 22.0 0.00 0.00 0.00 34 1010.3
20260508141003 62 324 9.0 19.0 0.00 0.00 0.00 35 1010.3
20260508140003 62 239 8.0 14.0 0.00 0.00 0.00 41 1010.5
20260508135003 62 278 6.0 17.0 0.00 0.00 0.00 40 1010.4
20260508134024 60 280 8.0 17.0 0.00 0.00 0.00 44 1010.7
20260508133003 59 277 9.0 14.0 0.00 0.00 0.00 46 1010.5
20260508132003 57 283 7.0 14.0 0.00 0.00 0.00 44 1010.8
20260508131003 56 295 9.0 14.0 0.00 0.00 0.00 48 1010.5
20260508130003 55 250 6.0 10.0 0.00 0.01 0.00 50 1010.8
20260508125003 57 228 5.0 10.0 0.00 0.01 0.00 51 1010.6
20260508124003 57 284 6.0 10.0 0.00 0.01 0.00 50 1010.6
20260508123003 54 185 5.0 10.0 0.00 0.01 0.00 56 1010.6
20260508122003 52 254 5.0 7.0 0.00 0.02 0.00 58 1010.7
20260508121003 50 239 5.0 9.0 0.00 0.03 0.00 61 1010.6
20260508120003 50 250 5.0 9.0 0.00 0.04 0.00 63 1010.6
20260508115003 49 256 5.0 8.0 0.00 0.05 0.00 63 1010.8
20260508114003 49 270 2.0 9.0 0.00 0.05 0.00 64 1010.9
20260508113024 48 315 6.0 9.0 0.00 0.05 0.00 64 1010.8
20260508112003 48 303 2.0 4.0 0.00 0.07 0.00 64 1010.7
20260508111003 47 216 1.0 6.0 0.00 0.09 0.00 66 1010.4
20260508110003 46 289 3.0 6.0 0.00 0.09 0.00 67 1010.6
20260508105003 46 247 2.0 6.0 0.00 0.09 0.00 69 1010.4
20260508104003 45 243 3.0 6.0 0.00 0.10 0.00 68 1010.3
20260508103004 45 275 4.0 6.0 0.00 0.11 0.00 67 1010.2
20260508102003 45 255 3.0 8.0 0.00 0.11 0.00 67 1010.1
20260508101003 44 261 3.0 8.0 0.00 0.12 0.00 69 1010.0
20260508100003 44 252 3.0 5.0 0.00 0.13 0.00 66 1010.0
20260508095003 44 247 4.0 5.0 0.00 0.14 0.00 66 1009.9
20260508094003 44 261 3.0 5.0 0.00 0.14 0.00 66 1009.8
20260508093025 44 253 2.0 7.0 0.00 0.14 0.00 65 1009.8
20260508092003 44 242 3.0 7.0 0.00 0.17 0.00 66 1009.8
20260508091024 44 257 6.0 7.0 0.00 0.19 0.00 65 1009.6
20260508090003 44 255 3.0 5.0 0.00 0.21 0.00 64 1009.6
20260508085002 44 243 3.0 4.0 0.00 0.23 0.00 62 1009.2
20260508084003 45 247 3.0 4.0 0.00 0.24 0.00 62 1009.1
20260508083003 46 247 2.0 4.0 0.00 0.27 0.00 60 1009.2
20260508082003 46 224 2.0 5.0 0.00 0.32 0.00 59 1008.9
20260508081003 46 280 3.0 5.0 0.00 0.45 0.00 57 1008.5
20260508080003 46 298 3.0 5.0 0.00 0.50 0.00 57 1008.6
20260508075003 47 306 3.0 5.0 0.00 0.50 0.00 56 1008.6
20260508074003 47 283 0.0 5.0 0.00 0.50 0.00 56 1008.2
20260508073003 48 259 2.0 6.0 0.00 0.50 0.00 56 1008.2
20260508072003 48 337 2.0 7.0 0.00 0.50 0.00 54 1008.1
20260508071003 48 19 3.0 8.0 0.00 0.50 0.00 53 1008.0
20260508070003 48 351 6.0 11.0 0.00 0.50 0.00 53 1008.1
20260508065003 49 19 4.0 11.0 0.00 0.50 0.00 53 1008.1
20260508064003 49 306 5.0 10.0 0.00 0.50 0.00 53 1008.0